Date String (YYYY-MM-DD hh:mm:ss) UTC,Instrument flags,Ambient pressure (hPa),Sample flow (lpm),Bypass flow (lpm),Sample temperature (°C),Ambient temperature (°C),ASC tube jacket temperature (°C),LED temperature (°C),Box temperature (°C),Sample RH (%),Span deviation,Mass concentration (μg/m³),Mass concentration (μg/m³),Mass concentration (μg/m³)
DateTimeUTC,F1_M11,P_M11,Q1_M11,Q2_M11,T1_M11,T2_M11,T3_M11,T4_M11,T5_M11,U1_M11,ZSPAN_M11,X0_M11,X2_M11,X1_M11
2023-01-27 07:00:00,,0822.4,5.00,0.00,22.1,20.5,00.0,31.1,23.6,07.8,0000.0,0001.79,0000.80,0000.48
2023-01-27 07:01:00,,0822.5,5.01,0.00,22.0,20.4,00.0,31.0,23.6,07.9,0000.0,0001.80,0000.81,0000.48
2023-01-27 07:02:00,,0822.5,5.01,0.00,22.0,21.0,00.0,31.0,23.7,07.7,0000.0,0001.84,0000.83,0000.49
2023-01-27 07:03:00,,0822.6,5.00,0.00,22.2,22.2,00.0,31.0,24.1,07.7,0000.0,0002.21,0000.80,0000.49
2023-01-27 07:04:00,,0822.6,5.00,0.00,22.3,23.0,00.0,31.0,24.3,07.6,0000.0,0002.97,0000.79,0000.49
2023-01-27 07:05:00,,0822.6,4.98,0.00,22.3,22.6,00.0,31.0,24.3,07.8,0000.0,0003.02,0000.77,0000.48
2023-01-27 07:06:00,,0822.6,4.99,0.00,22.3,22.1,00.0,31.1,24.2,07.9,0000.0,0002.94,0000.74,0000.48
2023-01-27 07:07:00,,0822.6,5.00,0.00,22.3,21.7,00.0,31.1,24.1,07.9,0000.0,0002.78,0000.69,0000.47
2023-01-27 07:08:00,,0822.6,5.01,0.00,22.3,21.3,00.0,31.1,24.1,07.7,0000.0,0002.62,0000.67,0000.47
2023-01-27 07:09:00,,0822.6,4.99,0.00,22.3,21.0,00.0,31.1,24.0,07.7,0000.0,0002.61,0000.66,0000.46
2023-01-27 07:10:00,,0822.6,4.99,0.00,22.2,20.9,00.0,31.1,23.9,07.7,0000.0,0002.45,0000.62,0000.45
2023-01-27 07:11:00,,0822.6,4.99,0.00,22.2,20.6,00.0,31.1,23.9,07.6,0000.0,0002.38,0000.62,0000.45
2023-01-27 07:12:00,,0822.6,5.00,0.00,22.2,20.4,00.0,31.1,23.7,07.4,0000.0,0002.36,0000.60,0000.45
2023-01-27 07:13:00,,0822.6,5.01,0.00,22.1,20.1,00.0,31.1,23.6,07.6,0000.0,0002.44,0000.57,0000.44
2023-01-27 07:14:00,,0822.6,4.99,0.00,22.0,20.0,00.0,31.1,23.6,07.6,0000.0,0002.35,0000.57,0000.43
2023-01-27 07:15:00,,0822.5,4.99,0.00,22.0,19.9,00.0,31.0,23.6,07.8,0000.0,0001.23,0000.57,0000.43
2023-01-27 07:16:00,,0822.6,4.99,0.00,22.0,19.9,00.0,31.0,23.5,07.6,0000.0,0001.11,0000.56,0000.43
2023-01-27 07:17:00,,0822.6,5.01,0.00,21.9,20.0,00.0,31.0,23.6,07.5,0000.0,0001.13,0000.57,0000.44
2023-01-27 07:18:00,,0822.6,5.01,0.00,21.9,20.3,00.0,30.9,23.6,07.6,0000.0,0000.99,0000.55,0000.44
2023-01-27 07:19:00,,0822.6,5.00,0.00,22.0,21.5,00.0,30.9,23.9,07.6,0000.0,0000.99,0000.55,0000.44
2023-01-27 07:20:00,,0822.6,5.00,0.00,22.1,22.5,00.0,30.9,24.1,07.6,0000.0,0001.03,0000.57,0000.44
2023-01-27 07:21:00,,0822.5,4.99,0.00,22.2,22.3,00.0,30.9,24.2,07.5,0000.0,0001.07,0000.58,0000.44
2023-01-27 07:22:00,,0822.5,5.02,0.00,22.2,21.9,00.0,31.0,24.1,07.7,0000.0,0001.07,0000.58,0000.44
2023-01-27 07:23:00,,0822.4,5.00,0.00,22.2,21.6,00.0,31.0,24.0,07.8,0000.0,0001.07,0000.58,0000.44
2023-01-27 07:24:00,,0822.4,5.00,0.00,22.2,21.3,00.0,31.0,24.0,07.4,0000.0,0000.94,0000.58,0000.43
2023-01-27 07:25:00,,0822.4,5.03,0.00,22.2,21.1,00.0,31.0,23.9,07.5,0000.0,0000.90,0000.56,0000.42
2023-01-27 07:26:00,,0822.4,5.01,0.00,22.2,20.8,00.0,31.0,23.8,07.7,0000.0,0000.86,0000.55,0000.42
2023-01-27 07:27:00,,0822.3,5.01,0.00,22.1,20.6,00.0,31.0,23.7,07.6,0000.0,0000.86,0000.55,0000.42
2023-01-27 07:28:00,,0822.3,5.01,0.00,22.1,20.5,00.0,31.0,23.7,07.7,0000.0,0000.86,0000.55,0000.42
2023-01-27 07:29:00,,0822.3,5.01,0.00,22.0,20.5,00.0,31.0,23.6,07.7,0000.0,0000.87,0000.55,0000.42
2023-01-27 07:30:00,,0822.4,4.99,0.00,22.0,20.4,00.0,31.0,23.6,07.8,0000.0,0000.87,0000.55,0000.42
2023-01-27 07:31:00,,0822.3,5.00,0.00,22.0,20.3,00.0,31.0,23.6,08.0,0000.0,0000.90,0000.54,0000.41
2023-01-27 07:32:00,,0822.3,4.99,0.00,22.0,20.3,00.0,30.9,23.6,07.9,0000.0,0000.87,0000.53,0000.42
2023-01-27 07:33:00,,0822.2,5.01,0.00,22.0,21.0,00.0,30.9,23.7,07.9,0000.0,0000.84,0000.52,0000.42
2023-01-27 07:34:00,,0822.3,5.00,0.00,22.1,22.1,00.0,30.9,24.0,07.8,0000.0,0000.91,0000.55,0000.42
2023-01-27 07:35:00,,0822.3,5.01,0.00,22.2,22.9,00.0,30.9,24.3,07.7,0000.0,0000.92,0000.55,0000.43
2023-01-27 07:36:00,,0822.2,4.98,0.00,22.3,22.5,00.0,31.0,24.3,07.7,0000.0,0000.94,0000.56,0000.43
2023-01-27 07:37:00,,0822.2,5.01,0.00,22.3,21.9,00.0,31.0,24.1,07.7,0000.0,0000.93,0000.56,0000.43
2023-01-27 07:38:00,,0822.0,4.96,0.00,22.3,21.5,00.0,31.0,24.0,07.7,0000.0,0000.96,0000.56,0000.42
2023-01-27 07:39:00,,0821.8,5.00,0.00,22.2,21.3,00.0,31.0,23.9,07.7,0000.0,0001.07,0000.60,0000.43
2023-01-27 07:40:00,,0821.9,4.99,0.00,22.2,21.0,00.0,31.0,23.8,07.8,0000.0,0001.40,0000.66,0000.44
2023-01-27 07:41:00,,0821.6,5.00,0.00,22.2,20.8,00.0,31.0,23.8,08.1,0000.0,0002.05,0000.73,0000.45
2023-01-27 07:42:00,,0821.7,5.00,0.00,22.1,20.6,00.0,31.0,23.7,08.0,0000.0,0003.01,0000.83,0000.48
2023-01-27 07:43:00,,0821.7,5.00,0.00,22.1,20.4,00.0,31.0,23.6,08.1,0000.0,0003.85,0000.93,0000.51
2023-01-27 07:44:00,,0821.7,5.01,0.00,22.0,20.3,00.0,31.0,23.5,08.0,0000.0,0003.99,0000.98,0000.51
2023-01-27 07:45:00,,0821.7,4.95,0.00,22.0,20.2,00.0,31.0,23.5,08.2,0000.0,0004.06,0001.00,0000.52
2023-01-27 07:46:00,,0821.7,5.02,0.00,22.0,21.0,00.0,30.9,23.7,08.3,0000.0,0004.32,0001.09,0000.53
2023-01-27 07:47:00,,0821.8,4.99,0.00,22.1,22.1,00.0,30.9,24.0,08.1,0000.0,0005.38,0001.15,0000.54
2023-01-27 07:48:00,,0821.8,5.00,0.00,22.2,22.7,00.0,31.0,24.3,07.9,0000.0,0006.71,0001.25,0000.56
2023-01-27 07:49:00,,0821.8,4.99,0.00,22.3,22.1,00.0,31.0,24.2,08.1,0000.0,0006.90,0001.30,0000.56
2023-01-27 07:50:00,,0821.8,5.02,0.00,22.2,21.6,00.0,31.1,24.0,07.7,0000.0,0006.91,0001.31,0000.55
2023-01-27 07:51:00,,0821.8,5.00,0.00,22.2,21.3,00.0,31.1,23.9,07.9,0000.0,0006.71,0001.29,0000.54
2023-01-27 07:52:00,,0821.8,5.00,0.00,22.2,21.0,00.0,31.1,23.8,07.6,0000.0,0006.08,0001.20,0000.52
2023-01-27 07:53:00,,0821.8,5.02,0.00,22.2,20.7,00.0,31.1,23.7,07.7,0000.0,0005.38,0001.09,0000.48
2023-01-27 07:54:00,,0821.8,4.99,0.00,22.1,20.5,00.0,31.1,23.7,07.8,0000.0,0005.17,0001.00,0000.45
2023-01-27 07:55:00,,0821.8,5.02,0.00,22.1,20.4,00.0,31.0,23.6,07.8,0000.0,0005.26,0000.97,0000.45
2023-01-27 07:56:00,,0821.9,5.01,0.00,22.0,20.3,00.0,31.0,23.5,07.9,0000.0,0005.30,0000.99,0000.44
2023-01-27 07:57:00,,0821.8,4.99,0.00,22.0,20.2,00.0,31.0,23.4,08.2,0000.0,0005.16,0000.95,0000.43
2023-01-27 07:58:00,,0821.9,5.03,0.00,22.0,20.8,00.0,30.9,23.6,08.2,0000.0,0004.30,0000.94,0000.43
2023-01-27 07:59:00,,0821.7,4.98,0.00,22.1,21.9,00.0,30.9,24.0,08.1,0000.0,0004.68,0000.89,0000.41
